Погода в Преградном

Россия / Ставропольский край     45°49′15″N   41°44′41″E
темп.,
°C
ветер,
м/с
пор.,
м/с
влажн.,
%
обл.,
%
осадки,
мм/ч
давл.,
гПа
погр.,
м
18 апреля, вс
вс1800:00+9ююз1292100 0.4 102266
03:00+9в2289100 0.4 102154
06:00+9в3692100 0.2 1019239
09:00+9в51095100 1.9 1018400
12:00+11в5893100 1.5 1017464
15:00+11вюв3696100 3.9 1017188
18:00+12юв2293100 0.6 101640
21:00+12ссз2292100 0.8 101634
19 апреля, пн
пн1900:00+11св2394100 0.1 101657
03:00+11сз1195100 0.3 101511
06:00+11зсз2297100 0.6 101526
09:00+12юз2595100 1.4 1016212
12:00+13сз1197100 3.3 101531
15:00+12ссз3499100 5.4 1014154
18:00+12з1198100 3.4 101524
21:00+12юв2398100 7.4 101578
20 апреля, вт
вт2000:00+13вюв2298100 0.3 101354
03:00+13в4995100 0.9 1010243
06:00+13в71485100 0.0 1007432
09:00+16вюв81475100 0.0 1004524
12:00+20юв71367100 0.1 1002681
15:00+19з71078100 0.4 1004495
18:00+18з61181100 0.3 1007540
21:00+15зюз61274100 0.4 1010611
21 апреля, ср
ср2100:00+12юз6137397 0.3 1012883
03:00+11зюз8177935 0.4 1014945
06:00+9зюз815815 0.0 1016870
09:00+12з8126919 0.0 10171139
12:00+15з686189 0.0 10181491
15:00+14з456697 0.1 10191001
18:00+13ююз237273 0.1 1020155
21:00+11ююз227784 0.1 102211
22 апреля, чт
чт2200:00+11ююз228039 0.0 102221
03:00+10зсз118284 0.0 102216
06:00+10с2384100 0.0 102392
09:00+12св337286 0.0 1023304
12:00+14вюв336975 0.0 1023755
15:00+16юв336199 0.8 10221107
18:00+14юв347270 0.3 1022182
21:00+10ююв228649 0.4 102224